EW9078 Weather Reports


time (UTC)temp
C
wind
direction
speed
KPH
gust
KPH
rain 1hr
cm
rain 24hr
cm
rain mn
cm
humidity
%
barometer
mb
20260504081505 22 0 0.0 0.0 0.00 0.00 0.00 43 996.9
20260504081005 22 0 0.0 0.0 0.00 0.00 0.00 43 997.1
20260504080505 22 0 0.0 0.0 0.00 0.00 0.00 43 996.9
20260504050505 25 298 3.2 24.1 0.00 0.00 0.00 35 997.6
20260504050005 25 296 3.2 19.3 0.00 0.00 0.00 35 997.6
20260504045505 25 292 1.6 11.3 0.00 0.00 0.00 35 997.7
20260504044505 25 295 1.6 14.5 0.00 0.00 0.00 36 997.4
20260504044005 25 302 1.6 14.5 0.00 0.00 0.00 35 997.3
20260504043505 25 290 1.6 16.1 0.00 0.00 0.00 36 997.5
20260504043007 25 287 1.6 16.1 0.00 0.00 0.00 37 997.6
20260504042506 25 293 1.6 14.5 0.00 0.00 0.00 38 997.7
20260504042005 25 286 1.6 16.1 0.00 0.00 0.00 37 997.4
20260504041505 25 284 1.6 16.1 0.00 0.00 0.00 37 997.2
20260504041005 25 310 4.8 29.0 0.00 0.00 0.00 36 997.2
20260504040005 25 294 4.8 22.5 0.00 0.00 0.00 35 997.2
20260504035505 25 292 4.8 27.4 0.00 0.00 0.00 35 997.2
20260504035006 25 295 4.8 27.4 0.00 0.00 0.00 34 997.1
20260504034506 25 296 4.8 25.7 0.00 0.00 0.00 35 997.1
20260504034006 26 301 8.0 25.7 0.00 0.00 0.00 34 997.1
20260504033506 26 308 4.8 27.4 0.00 0.00 0.00 32 996.8
20260504033006 26 314 3.2 27.4 0.00 0.00 0.00 34 996.7
20260504032505 26 311 3.2 22.5 0.00 0.00 0.00 35 996.6
20260504032005 26 300 4.8 22.5 0.00 0.00 0.00 35 996.5
20260504031006 26 302 4.8 20.9 0.00 0.00 0.00 35 996.3
20260504030506 26 297 8.0 30.6 0.00 0.00 0.00 35 996.2
20260504030006 26 297 8.0 30.6 0.00 0.00 0.00 34 996.1
20260504025505 26 307 8.0 33.8 0.00 0.00 0.00 35 996.1
20260504024505 26 303 8.0 29.0 0.00 0.00 0.00 35 996.0
20260504024005 26 310 8.0 29.0 0.00 0.00 0.00 35 995.8
20260504023505 26 304 9.7 30.6 0.00 0.00 0.00 35 995.7
20260504023005 26 296 8.0 30.6 0.00 0.00 0.00 34 995.6
20260504022505 26 302 6.4 29.0 0.00 0.00 0.00 33 995.5
20260504021506 26 297 8.0 32.2 0.00 0.00 0.00 35 995.6
20260504021006 26 301 6.4 22.5 0.00 0.00 0.00 36 995.6
20260504020005 26 311 6.4 32.2 0.00 0.00 0.00 33 995.5
20260504015505 26 296 6.4 29.0 0.00 0.00 0.00 34 995.4
20260504013505 26 285 11.3 32.2 0.00 0.00 0.00 34 995.2
20260504013005 27 294 11.3 32.2 0.00 0.00 0.00 35 995.4
20260504012506 27 303 9.7 32.2 0.00 0.00 0.00 35 995.2
20260504011005 27 301 11.3 33.8 0.00 0.00 0.00 35 995.1
20260504010005 27 304 4.8 30.6 0.00 0.00 0.00 35 994.8
20260504004505 27 315 8.0 30.6 0.00 0.00 0.00 35 995.0
20260504004005 27 314 8.0 35.4 0.00 0.00 0.00 34 995.0
20260504003006 27 301 8.0 32.2 0.00 0.00 0.00 38 995.1
20260504002006 28 298 11.3 33.8 0.00 0.00 0.00 36 995.0
20260504001505 28 302 9.7 32.2 0.00 0.00 0.00 35 994.6
20260504001005 28 298 8.0 30.6 0.00 0.00 0.00 33 994.5
20260504000505 28 297 6.4 27.4 0.00 0.00 0.00 32 994.3
20260504000005 28 300 6.4 29.0 0.00 0.00 0.00 31 994.4
20260503235505 28 304 9.7 32.2 0.00 0.00 0.00 31 994.6
20260503235005 28 309 11.3 32.2 0.00 0.00 0.00 31 994.5
20260503234505 28 305 11.3 30.6 0.00 0.00 0.00 30 994.5
20260503234005 28 307 11.3 29.0 0.00 0.00 0.00 30 994.5
20260503233505 28 308 12.9 32.2 0.00 0.00 0.00 29 994.4
20260503233005 28 304 12.9 32.2 0.00 0.00 0.00 29 994.5
20260503232006 29 309 9.7 30.6 0.00 0.00 0.00 28 994.7
20260503231005 29 301 11.3 32.2 0.00 0.00 0.00 28 995.0
20260503230505 30 309 11.3 32.2 0.00 0.00 0.00 27 995.0
20260503230006 30 299 11.3 33.8 0.00 0.00 0.00 26 995.1
20260503225505 30 295 11.3 33.8 0.00 0.00 0.00 23 995.1
20260503225005 30 299 12.9 37.0 0.00 0.00 0.00 23 995.1
20260503224505 31 292 11.3 37.0 0.00 0.00 0.00 22 995.1
20260503224005 31 297 8.0 30.6 0.00 0.00 0.00 20 995.0
20260503223505 31 301 6.4 22.5 0.00 0.00 0.00 19 994.9
20260503223005 31 294 6.4 25.7 0.00 0.00 0.00 19 994.6
20260503221505 31 299 6.4 24.1 0.00 0.00 0.00 16 995.0
20260503221005 32 282 4.8 22.5 0.00 0.00 0.00 15 995.0
20260503220505 32 279 4.8 25.7 0.00 0.00 0.00 13 995.1
20260503220005 32 273 4.8 25.7 0.00 0.00 0.00 13 995.1
20260503215505 32 251 6.4 19.3 0.00 0.00 0.00 13 995.5
20260503215006 32 270 6.4 19.3 0.00 0.00 0.00 12 995.6
20260503214505 32 290 6.4 24.1 0.00 0.00 0.00 12 995.6
20260503214005 32 279 6.4 24.1 0.00 0.00 0.00 12 995.6
20260503213505 32 281 4.8 24.1 0.00 0.00 0.00 12 995.6
20260503213006 32 233 6.4 24.1 0.00 0.00 0.00 12 995.6
20260503212505 32 224 4.8 24.1 0.00 0.00 0.00 12 995.6
20260503211505 32 285 4.8 22.5 0.00 0.00 0.00 12 995.7
20260503211005 32 251 11.3 32.2 0.00 0.00 0.00 12 995.8
20260503210505 32 230 9.7 33.8 0.00 0.00 0.00 12 995.7
20260503210006 32 228 8.0 33.8 0.00 0.00 0.00 12 995.8
20260503205505 32 213 12.9 30.6 0.00 0.00 0.00 12 995.8
20260503205005 32 210 12.9 37.0 0.00 0.00 0.00 13 995.7
20260503204506 32 222 11.3 37.0 0.00 0.00 0.00 11 995.6
20260503204004 32 214 11.3 33.8 0.00 0.00 0.00 11 995.6
20260503203505 32 216 9.7 33.8 0.00 0.00 0.00 12 995.6
20260503203005 32 248 6.4 27.4 0.00 0.00 0.00 12 995.5
20260503202505 32 237 8.0 17.7 0.00 0.00 0.00 14 995.4
20260503202006 32 227 8.0 24.1 0.00 0.00 0.00 13 995.5
20260503201005 32 255 6.4 24.1 0.00 0.00 0.00 13 995.8
20260503200505 32 244 6.4 24.1 0.00 0.00 0.00 13 996.0
20260503200005 32 229 9.7 30.6 0.00 0.00 0.00 14 996.1
20260503195505 32 225 12.9 32.2 0.00 0.00 0.00 13 996.0
20260503195005 32 221 12.9 32.2 0.00 0.00 0.00 14 996.0
20260503194505 32 217 12.9 45.1 0.00 0.00 0.00 14 996.1
20260503194006 32 206 8.0 45.1 0.00 0.00 0.00 14 996.1
20260503193505 32 190 8.0 29.0 0.00 0.00 0.00 13 996.1
20260503193005 32 219 8.0 19.3 0.00 0.00 0.00 14 996.1
20260503192505 32 237 8.0 19.3 0.00 0.00 0.00 14 996.1
20260503192005 32 215 8.0 19.3 0.00 0.00 0.00 14 996.4
20260503191006 32 218 9.7 30.6 0.00 0.00 0.00 14 996.6
20260503190504 31 210 8.0 30.6 0.00 0.00 0.00 13 996.6
20260503190004 32 202 4.8 22.5 0.00 0.00 0.00 13 996.6
20260503185506 31 193 4.8 14.5 0.00 0.00 0.00 13 996.6
20260503185005 31 181 4.8 24.1 0.00 0.00 0.00 14 996.7
20260503184505 31 188 4.8 24.1 0.00 0.00 0.00 14 997.1
20260503184005 31 191 3.2 20.9 0.00 0.00 0.00 14 997.1
20260503183505 31 211 3.2 20.9 0.00 0.00 0.00 15 997.2
20260503182505 30 167 3.2 14.5 0.00 0.00 0.00 15 997.3
20260503181506 31 200 3.2 14.5 0.00 0.00 0.00 15 997.4
20260503181005 31 196 3.2 16.1 0.00 0.00 0.00 15 997.6
20260503180505 30 207 6.4 22.5 0.00 0.00 0.00 14 997.7
20260503175504 30 170 3.2 17.7 0.00 0.00 0.00 15 997.7
20260503175004 30 160 1.6 11.3 0.00 0.00 0.00 16 997.6
20260503174505 30 167 1.6 11.3 0.00 0.00 0.00 17 997.5
20260503173505 30 224 1.6 11.3 0.00 0.00 0.00 17 997.7
20260503173005 30 236 3.2 19.3 0.00 0.00 0.00 17 997.7
20260503172505 29 230 3.2 19.3 0.00 0.00 0.00 17 997.7
20260503171505 28 219 1.6 12.9 0.00 0.00 0.00 19 997.7
20260503171004 28 207 1.6 12.9 0.00 0.00 0.00 19 997.7
20260503170504 28 172 3.2 9.7 0.00 0.00 0.00 21 997.7
20260503151005 23 347 0.0 1.6 0.00 0.00 0.00 28 997.6
20260503150505 23 347 0.0 1.6 0.00 0.00 0.00 30 997.3
20260503131005 20 218 0.0 3.2 0.00 0.00 0.00 38 996.1
20260503130505 20 220 0.0 3.2 0.00 0.00 0.00 38 996.0